Wind_Speed
40 40 39 39 39 40 40 40 40 40 41 40 41 41 42 43 44 43 44 44 44 45 46 47 48 49 50 51 52 53 54 54 55 55 55 56 57 59 60 61 61 60
41 41 41 41 41 41 42 42 42 42 41 41 41 42 43 44 44 44 45 45 45 47 48 49 50 51 52 53 54 55 55 56 56 56 57 57 59 60 60 60 60 59
43 43 43 43 43 43 43 43 43 42 42 42 43 43 44 45 45 46 46 46 47 49 50 51 52 53 54 55 55 56 56 57 57 57 57 59 59 60 60 59 58 57
44 44 44 44 45 45 44 44 44 43 43 43 44 45 45 46 46 47 48 48 49 51 52 53 54 54 55 56 56 57 57 57 57 58 58 59 59 59 59 58 57 57
45 45 45 46 46 46 46 45 45 45 45 45 45 47 47 48 48 49 50 50 52 53 53 54 55 56 56 56 57 57 57 58 58 58 58 58 58 58 58 58 58 58
46 46 47 47 47 47 47 47 47 47 47 47 48 49 49 50 50 51 51 52 53 54 54 55 56 56 56 57 57 57 58 58 58 58 58 58 58 58 58 58 59 59
47 48 48 48 48 48 48 48 48 48 49 49 50 50 51 51 52 52 53 54 54 55 55 56 56 56 57 57 57 57 58 58 58 58 58 58 58 58 59 59 60 60
47 48 48 49 49 49 49 49 49 50 50 51 51 52 52 53 53 54 54 55 55 55 56 56 56 56 57 57 57 57 57 57 57 58 58 58 59 59 60 60 60 60
47 47 48 49 49 50 50 50 51 51 52 52 53 53 53 54 54 55 55 55 55 56 56 56 56 57 56 56 56 56 57 57 58 58 58 59 59 60 60 60 60 60
47 47 48 49 49 50 51 51 52 52 53 53 53 54 54 55 55 55 55 56 56 56 56 56 56 55 55 55 55 56 57 58 58 59 59 59 59 59 59 60 61 62
48 49 49 50 50 51 52 52 53 53 53 53 54 54 55 55 55 55 56 56 56 55 55 54 54 54 55 56 57 58 58 59 59 59 59 59 59 59 60 61 62 64
49 50 50 51 51 52 52 53 53 53 53 54 54 55 55 55 55 55 55 54 53 53 53 54 54 56 57 58 58 59 59 59 59 59 59 59 59 60 61 63 64 66
48 49 49 50 51 51 51 52 52 53 53 53 54 54 53 53 53 52 52 52 52 53 55 56 57 58 58 59 58 58 58 58 58 58 59 60 61 62 63 64 66 68
48 48 49 49 50 50 50 51 51 52 52 52 52 52 52 52 52 53 53 54 56 57 58 59 59 58 58 57 57 57 57 58 58 59 60 61 62 63 65 67 68 70
51 50 50 50 50 51 51 52 52 52 53 53 54 54 54 55 56 57 58 59 59 59 59 58 57 56 55 55 56 56 57 58 59 60 61 62 64 65 67 69 71 72
53 53 53 53 53 54 54 55 55 55 56 56 57 57 58 59 59 60 60 59 58 57 55 54 53 53 54 55 56 57 58 59 60 61 63 64 66 67 69 71 72 71
54 55 55 55 56 56 57 57 58 58 59 59 60 60 60 59 59 57 56 54 53 52 51 51 52 53 54 55 57 58 59 60 61 63 65 66 68 69 71 72 70 68
55 55 56 57 57 58 58 59 59 59 59 58 57 56 55 54 52 51 50 50 49 50 51 52 53 54 56 57 58 59 60 62 64 65 66 68 70 71 71 69 66 65
57 57 58 58 58 58 57 56 56 55 54 53 51 50 49 49 48 48 48 49 50 51 52 53 54 56 57 58 59 61 62 64 65 67 68 70 71 70 68 65 64 64
57 56 56 55 54 53 53 52 51 50 49 49 48 48 48 48 49 49 50 50 51 52 53 55 56 57 58 60 61 63 64 66 67 69 70 70 69 66 64 64 64 64
51 50 50 50 50 50 49 49 49 49 49 49 49 49 50 50 51 51 51 52 53 54 55 57 58 59 60 62 63 65 66 68 69 70 69 67 65 64 63 64 64 65
47 47 48 48 48 49 49 49 49 49 50 50 50 51 51 52 52 53 53 54 55 56 57 58 59 61 62 64 65 67 68 69 69 68 66 64 63 63 63 64 65 66
46 47 47 48 48 48 49 49 50 50 50 51 51 52 52 53 54 54 55 56 57 58 59 60 61 63 64 66 67 69 69 69 67 65 64 63 63 63 64 65 66 66
45 45 46 46 47 48 49 49 50 51 51 52 53 53 54 54 55 56 57 57 58 59 60 62 64 65 66 68 69 69 68 66 64 63 63 63 63 64 65 65 66 67
43 44 45 46 47 47 48 49 50 51 51 52 53 53 54 55 56 57 58 59 60 61 63 64 66 67 68 68 68 67 66 64 63 64 64 64 64 64 64 65 66 67
43 44 45 45 46 47 47 48 48 49 50 51 52 53 54 55 56 58 59 60 61 62 63 64 65 66 66 66 66 65 64 63 64 65 65 65 64 64 64 65 67 68
Wind_Direction
272 274 274 275 275 275 276 276 277 277 277 277 278 278 278 278 279 280 280 281 282 283 284 284 284 285 286 287 288 289 290 291 292 293 294 296 297 298 298 298 298 299
272 273 274 274 275 275 275 276 276 276 277 277 277 277 277 278 278 279 280 281 282 282 283 283 284 285 286 287 288 289 290 291 292 293 295 296 297 297 297 298 299 300
271 273 273 274 274 274 274 274 275 276 276 277 276 276 276 277 278 279 280 281 282 282 282 283 284 285 286 287 288 289 290 291 292 294 295 296 297 297 297 298 299 300
270 271 272 272 273 273 274 274 275 275 275 275 275 276 276 277 278 279 280 281 281 281 282 283 284 285 286 287 289 290 291 292 293 294 295 296 296 297 298 299 299 300
268 270 271 271 272 272 273 274 274 274 274 275 275 275 276 277 278 279 280 281 280 281 282 283 284 285 287 288 289 290 291 292 293 294 295 296 296 297 298 298 299 300
268 269 270 270 271 272 272 273 273 274 274 274 275 275 276 277 278 279 280 280 280 281 282 283 285 286 287 288 289 291 291 292 293 294 295 296 296 297 297 298 299 300
267 268 268 269 270 271 271 272 273 273 274 274 275 276 277 278 279 279 280 280 281 282 283 285 286 287 288 289 290 290 291 292 293 294 295 295 296 296 297 298 300 301
266 266 267 267 268 269 269 270 271 272 273 274 275 276 277 278 279 280 280 281 282 283 284 286 286 287 288 288 288 289 291 292 293 294 294 294 295 296 298 299 300 301
265 266 266 267 267 268 269 270 271 272 273 274 276 277 278 278 279 280 281 282 283 284 285 285 286 286 286 287 288 290 291 292 292 293 293 294 296 297 298 299 300 301
265 266 267 268 269 269 270 271 272 273 274 275 276 277 277 278 279 280 281 282 283 283 284 284 284 285 286 288 290 290 291 291 292 293 294 296 297 298 298 299 300 302
265 266 267 268 269 270 271 272 272 274 274 275 275 276 277 277 278 279 280 281 282 282 282 283 285 286 288 289 289 289 290 291 292 294 295 296 297 297 298 299 301 302
265 266 266 267 268 268 269 270 271 272 273 274 275 275 276 277 278 279 279 280 281 282 283 284 286 287 288 288 288 289 290 292 294 295 295 296 297 298 299 300 301 302
264 264 265 265 266 267 268 269 270 271 272 273 274 275 276 277 277 278 279 280 281 282 284 285 286 287 287 288 289 290 292 293 294 295 295 296 297 298 300 301 302 304
263 263 264 265 265 266 267 268 269 269 270 271 272 273 274 275 276 277 278 280 281 283 284 285 286 287 288 289 291 292 293 293 294 294 295 297 298 299 301 303 304 305
263 264 264 264 264 264 265 265 266 267 268 269 270 272 273 275 276 278 280 281 282 284 285 286 287 288 290 291 292 292 293 293 294 295 296 298 299 301 303 304 305 305
263 264 264 264 264 265 266 266 267 268 269 271 272 274 276 278 279 280 281 283 284 285 286 288 289 290 291 291 291 292 293 294 295 296 298 299 301 302 303 304 304 304
263 263 264 265 266 267 268 269 270 271 273 275 276 278 279 280 281 282 283 284 286 287 289 290 290 290 290 290 291 292 293 294 296 297 299 300 301 302 303 303 303 303
266 267 268 269 270 271 272 273 275 276 277 278 279 280 281 282 283 284 285 286 288 288 289 289 289 289 290 291 292 293 294 295 296 297 298 300 301 302 302 301 302 302
271 272 273 274 275 276 277 278 279 279 280 280 280 281 282 283 284 284 285 286 287 287 288 288 288 289 290 291 292 293 294 295 296 297 298 300 300 300 300 300 302 303
273 274 275 276 277 277 278 279 279 280 280 280 281 281 282 282 283 284 284 285 286 286 287 287 288 289 290 291 292 293 294 295 296 297 298 299 299 299 300 301 302 303
273 273 274 275 275 276 277 278 279 279 280 281 281 281 282 282 282 283 283 284 285 285 286 287 288 288 289 290 291 292 293 294 296 297 298 298 298 299 300 301 302 303
273 273 274 274 275 276 277 277 278 278 279 279 280 280 281 281 281 282 283 283 284 285 286 287 287 288 289 290 291 292 293 295 296 297 297 297 297 299 300 301 303 303
276 276 276 276 276 277 277 277 277 277 277 278 278 279 280 281 282 282 283 284 285 285 286 286 287 288 289 290 291 293 295 296 296 296 296 296 297 299 301 302 303 303
280 279 279 278 278 278 277 277 277 277 278 278 279 280 281 282 282 283 283 284 284 285 285 286 287 288 290 291 293 294 295 295 295 294 295 296 298 300 301 302 303 303
280 280 279 279 279 279 279 279 279 280 280 281 281 281 281 282 282 282 283 283 284 284 285 287 288 289 290 291 292 292 293 293 293 294 295 297 299 300 301 301 301 300
279 279 279 279 280 280 280 281 281 281 282 282 282 282 282 282 282 282 283 283 284 285 286 287 288 289 289 289 290 290 291 292 293 294 296 297 298 299 300 299 299 298
Height
5849 5849 5849 5849 5848 5848 5847 5846 5846 5845 5844 5844 5843 5842 5841 5840 5838 5838 5837 5835 5834 5833 5831 5829 5828 5826 5824 5822 5820 5818 5816 5814 5812 5811 5809 5806 5804 5801 5798 5795 5792 5790
5845 5844 5844 5844 5843 5843 5842 5841 5840 5840 5840 5839 5838 5837 5836 5835 5834 5832 5831 5830 5829 5827 5825 5824 5822 5820 5818 5816 5814 5812 5810 5808 5807 5805 5802 5800 5797 5794 5791 5788 5786 5783
5840 5840 5839 5839 5839 5838 5837 5836 5836 5835 5835 5834 5833 5832 5831 5829 5828 5827 5826 5825 5823 5821 5820 5818 5816 5814 5812 5810 5808 5806 5804 5803 5800 5798 5796 5793 5790 5787 5784 5782 5779 5777
5835 5835 5835 5834 5834 5833 5832 5832 5831 5831 5830 5829 5828 5827 5825 5824 5823 5822 5820 5819 5817 5815 5814 5812 5810 5808 5806 5804 5802 5800 5798 5796 5794 5792 5789 5786 5783 5780 5777 5775 5773 5771
5830 5830 5829 5829 5828 5828 5827 5827 5826 5825 5824 5824 5822 5821 5820 5819 5818 5816 5815 5814 5812 5810 5808 5807 5804 5802 5800 5799 5796 5794 5792 5790 5787 5785 5782 5779 5776 5774 5771 5769 5767 5765
5825 5824 5824 5823 5823 5822 5821 5821 5820 5819 5819 5818 5817 5815 5814 5814 5812 5811 5810 5808 5806 5804 5802 5801 5799 5797 5795 5793 5791 5788 5786 5783 5781 5778 5776 5773 5770 5768 5766 5763 5761 5759
5819 5819 5818 5818 5817 5817 5816 5815 5815 5814 5813 5812 5811 5810 5809 5808 5807 5805 5804 5802 5800 5798 5796 5795 5793 5791 5789 5787 5784 5782 5779 5777 5774 5772 5770 5767 5765 5762 5760 5757 5755 5753
5813 5813 5813 5812 5811 5811 5810 5810 5809 5808 5807 5806 5806 5805 5803 5802 5801 5799 5798 5796 5794 5792 5791 5789 5787 5785 5782 5780 5777 5775 5773 5770 5768 5766 5764 5761 5759 5756 5754 5751 5749 5747
5807 5807 5806 5806 5805 5805 5804 5804 5803 5802 5802 5801 5800 5799 5798 5796 5795 5793 5792 5790 5788 5786 5785 5783 5780 5778 5776 5773 5771 5769 5767 5765 5762 5760 5758 5756 5753 5751 5748 5746 5743 5741
5801 5800 5800 5799 5799 5798 5798 5797 5797 5796 5796 5795 5794 5793 5792 5790 5789 5787 5786 5784 5782 5780 5778 5776 5774 5771 5769 5767 5765 5763 5761 5758 5756 5754 5752 5750 5747 5745 5742 5740 5737 5735
5794 5794 5793 5793 5793 5792 5792 5791 5791 5790 5790 5789 5788 5787 5786 5784 5783 5781 5779 5777 5775 5773 5771 5769 5767 5765 5763 5761 5759 5757 5755 5752 5750 5748 5746 5744 5741 5739 5737 5734 5732 5729
5788 5787 5787 5787 5786 5786 5785 5785 5784 5784 5783 5782 5781 5780 5779 5778 5776 5774 5773 5771 5769 5767 5765 5763 5761 5759 5757 5755 5753 5751 5748 5746 5744 5742 5740 5738 5736 5733 5731 5728 5726 5722
5781 5781 5781 5780 5780 5780 5779 5779 5778 5777 5777 5776 5775 5774 5772 5771 5769 5767 5766 5764 5762 5760 5758 5757 5755 5753 5751 5748 5746 5744 5742 5740 5738 5736 5734 5732 5730 5727 5725 5722 5719 5715
5775 5774 5774 5774 5774 5773 5773 5772 5771 5770 5769 5769 5767 5766 5765 5763 5762 5760 5759 5757 5755 5754 5752 5750 5748 5746 5744 5742 5740 5738 5736 5734 5732 5730 5728 5726 5723 5721 5718 5715 5712 5708
5768 5768 5768 5767 5766 5766 5765 5764 5764 5763 5762 5761 5760 5759 5758 5756 5755 5754 5752 5750 5749 5747 5745 5744 5742 5739 5738 5736 5734 5732 5730 5728 5726 5724 5721 5719 5716 5714 5711 5707 5704 5701
5762 5761 5761 5760 5759 5759 5758 5758 5757 5756 5756 5755 5754 5752 5751 5750 5748 5747 5745 5744 5742 5740 5739 5737 5735 5733 5731 5729 5727 5725 5723 5721 5719 5717 5714 5712 5709 5706 5703 5700 5697 5693
5755 5755 5754 5754 5753 5753 5752 5751 5751 5750 5749 5748 5747 5746 5744 5743 5742 5740 5739 5737 5735 5734 5732 5731 5729 5727 5725 5723 5721 5719 5716 5714 5712 5710 5707 5705 5702 5699 5696 5693 5689 5686
5749 5748 5748 5747 5747 5746 5745 5744 5744 5743 5742 5741 5739 5738 5737 5736 5735 5733 5732 5731 5729 5728 5726 5724 5722 5720 5718 5716 5714 5712 5709 5707 5705 5703 5700 5698 5695 5692 5688 5685 5682 5678
5742 5741 5741 5740 5739 5738 5738 5737 5736 5735 5734 5733 5732 5731 5730 5730 5728 5727 5726 5725 5723 5722 5720 5718 5716 5714 5712 5709 5707 5705 5702 5700 5698 5696 5693 5690 5687 5684 5681 5678 5675 5671
5735 5735 5734 5733 5732 5731 5731 5730 5729 5728 5728 5727 5726 5725 5724 5723 5722 5721 5720 5718 5717 5715 5713 5711 5709 5707 5705 5703 5700 5698 5695 5693 5691 5688 5686 5683 5679 5676 5673 5670 5667 5664
5729 5728 5727 5726 5726 5725 5724 5724 5723 5722 5721 5720 5720 5719 5718 5717 5715 5714 5713 5712 5710 5709 5707 5705 5702 5700 5698 5696 5693 5691 5688 5686 5684 5681 5678 5675 5672 5669 5666 5663 5660 5656
5722 5722 5721 5720 5720 5719 5718 5718 5717 5716 5715 5714 5713 5712 5711 5710 5709 5708 5707 5705 5704 5702 5700 5698 5695 5693 5691 5689 5686 5684 5681 5679 5676 5674 5671 5667 5664 5661 5658 5655 5652 5649
5716 5716 5715 5714 5714 5713 5712 5711 5710 5709 5709 5707 5707 5706 5704 5703 5703 5701 5700 5699 5697 5695 5693 5691 5688 5686 5684 5682 5679 5677 5674 5671 5669 5666 5663 5660 5658 5655 5652 5649 5646 5642
5710 5710 5709 5708 5707 5707 5706 5705 5704 5703 5702 5701 5700 5699 5698 5697 5696 5695 5693 5692 5690 5688 5686 5684 5681 5679 5676 5674 5672 5669 5666 5664 5661 5658 5656 5654 5651 5649 5646 5643 5639 5636
5704 5703 5703 5702 5701 5700 5699 5699 5698 5697 5696 5695 5694 5693 5692 5690 5689 5688 5686 5685 5683 5681 5679 5677 5674 5671 5668 5666 5664 5661 5659 5656 5654 5651 5649 5647 5645 5642 5639 5636 5632 5629
5698 5697 5697 5696 5695 5694 5693 5692 5691 5690 5689 5689 5687 5686 5685 5683 5682 5680 5679 5677 5675 5673 5672 5669 5667 5664 5661 5659 5656 5654 5652 5649 5646 5644 5642 5640 5638 5635 5632 5629 5625 5621